DW0708 Weather Reports


time (UTC)temp
C
wind
direction
speed
KPH
gust
KPH
rain 1hr
cm
rain 24hr
cm
rain mn
cm
humidity
%
barometer
mb
20260505014538 23 115 3.2 12.9 0.00 0.00 0.00 74 1010.6
20260505014012 23 0 1.6 12.9 0.00 0.00 0.00 74 1010.6
20260505013513 23 115 3.2 12.9 0.00 0.00 0.00 73 1010.6
20260505013037 23 126 0.0 8.0 0.00 0.00 0.00 72 1010.4
20260505012514 23 0 0.0 11.3 0.00 0.00 0.00 72 1010.4
20260505012011 23 0 1.6 20.9 0.00 0.00 0.00 71 1010.3
20260505011535 23 162 3.2 20.9 0.00 0.00 0.00 71 1010.2
20260505011015 23 127 1.6 16.1 0.00 0.00 0.00 70 1010.3
20260505010513 24 148 0.0 4.8 0.00 0.00 0.00 70 1010.4
20260505010030 24 150 0.0 11.3 0.00 0.00 0.00 70 1010.4
20260505005514 24 170 1.6 11.3 0.00 0.00 0.00 69 1010.4
20260505005012 24 0 0.0 9.7 0.00 0.00 0.00 69 1010.4
20260505004540 25 94 0.0 9.7 0.00 0.00 0.00 68 1010.3
20260505004015 25 203 1.6 9.7 0.00 0.00 0.00 68 1010.3
20260505003513 25 130 1.6 9.7 0.00 0.00 0.00 68 1010.2
20260505003048 25 0 0.0 9.7 0.00 0.00 0.00 68 1010.2
20260505002513 25 199 3.2 9.7 0.00 0.00 0.00 67 1010.3
20260505002012 25 175 0.0 17.7 0.00 0.00 0.00 67 1010.4
20260505001530 25 192 1.6 17.7 0.00 0.00 0.00 66 1010.3
20260505001010 25 169 3.2 17.7 0.00 0.00 0.00 66 1010.3
20260505000514 25 158 0.0 17.7 0.00 0.00 0.00 66 1010.3
20260505000034 25 174 3.2 17.7 0.00 0.00 0.00 66 1010.4
20260504235513 25 0 3.2 11.3 0.00 0.00 0.00 66 1010.4
20260504235012 25 185 0.0 9.7 0.00 0.00 0.00 65 1010.6
20260504234530 25 0 1.6 11.3 0.00 0.00 0.00 65 1010.5
20260504234016 26 181 4.8 11.3 0.00 0.00 0.00 65 1010.5
20260504233513 26 0 1.6 14.5 0.00 0.00 0.00 65 1010.4
20260504233029 26 182 3.2 14.5 0.00 0.00 0.00 64 1010.5
20260504232515 26 0 3.2 14.5 0.00 0.00 0.00 63 1010.5
20260504232010 26 115 4.8 14.5 0.00 0.00 0.00 63 1010.6
20260504231530 26 345 1.6 11.3 0.00 0.00 0.00 64 1010.6
20260504231014 26 0 1.6 22.5 0.00 0.00 0.00 64 1010.5
20260504230514 26 163 3.2 22.5 0.00 0.00 0.00 62 1010.8
20260504230027 26 249 1.6 19.3 0.00 0.00 0.00 62 1010.9
20260504225512 26 189 6.4 19.3 0.00 0.00 0.00 60 1010.8
20260504225011 26 203 4.8 16.1 0.00 0.00 0.00 61 1010.8
20260504224528 26 0 0.0 9.7 0.00 0.00 0.00 64 1010.9
20260504224010 26 0 0.0 9.7 0.00 0.00 0.00 62 1010.8
20260504223511 26 202 3.2 16.1 0.00 0.00 0.00 60 1011.0
20260504223029 26 0 3.2 16.1 0.00 0.00 0.00 60 1011.0
20260504222512 26 208 1.6 19.3 0.00 0.00 0.00 60 1011.0
20260504222009 27 0 4.8 19.3 0.00 0.00 0.00 58 1011.0
20260504221526 27 0 1.6 14.5 0.00 0.00 0.00 60 1011.1
20260504221011 27 118 3.2 14.5 0.00 0.00 0.00 60 1011.2
20260504220511 27 0 3.2 12.9 0.00 0.00 0.00 59 1011.2
20260504220031 27 264 4.8 14.5 0.00 0.00 0.00 58 1011.2
20260504215510 27 176 1.6 14.5 0.00 0.00 0.00 59 1011.2
20260504215008 27 0 4.8 14.5 0.00 0.00 0.00 56 1011.2
20260504214526 27 0 1.6 14.5 0.00 0.00 0.00 56 1011.3
20260504214013 27 229 3.2 14.5 0.00 0.00 0.00 55 1011.3
20260504213511 27 124 1.6 16.1 0.00 0.00 0.00 54 1011.4
20260504213029 28 198 1.6 16.1 0.00 0.00 0.00 53 1011.4
20260504212509 28 186 4.8 16.1 0.00 0.00 0.00 52 1011.6
20260504212012 28 263 4.8 19.3 0.00 0.00 0.00 53 1011.6
20260504211536 28 182 3.2 19.3 0.00 0.00 0.00 54 1011.6
20260504211011 28 217 3.2 19.3 0.00 0.00 0.00 52 1011.7
20260504210511 28 162 4.8 14.5 0.00 0.00 0.00 51 1011.8
20260504210026 29 0 0.0 14.5 0.00 0.00 0.00 52 1011.9
20260504205007 29 0 3.2 12.9 0.00 0.00 0.00 52 1011.9
20260504204532 28 155 3.2 14.5 0.00 0.00 0.00 52 1012.2
20260504204011 28 0 4.8 14.5 0.00 0.00 0.00 51 1012.3
20260504203514 28 248 4.8 12.9 0.00 0.00 0.00 52 1012.4
20260504203026 28 129 4.8 12.9 0.00 0.00 0.00 51 1012.4
20260504202509 28 0 1.6 9.7 0.00 0.00 0.00 53 1012.5
20260504202011 28 281 1.6 17.7 0.00 0.00 0.00 53 1012.7
20260504201529 28 203 3.2 17.7 0.00 0.00 0.00 52 1012.9
20260504201009 28 186 3.2 16.1 0.00 0.00 0.00 53 1012.9
20260504200511 28 185 1.6 16.1 0.00 0.00 0.00 51 1013.0
20260504200029 28 166 1.6 12.9 0.00 0.00 0.00 52 1013.1
20260504195522 28 156 0.0 12.9 0.00 0.00 0.00 53 1013.2
20260504195012 28 0 1.6 12.9 0.00 0.00 0.00 52 1013.3
20260504194528 28 132 1.6 9.7 0.00 0.00 0.00 52 1013.4
20260504194010 28 61 3.2 11.3 0.00 0.00 0.00 52 1013.3
20260504193513 28 0 0.0 14.5 0.00 0.00 0.00 52 1013.4
20260504193026 28 210 1.6 14.5 0.00 0.00 0.00 51 1013.5
20260504192513 28 218 4.8 14.5 0.00 0.00 0.00 51 1013.6
20260504192014 28 163 3.2 16.1 0.00 0.00 0.00 51 1013.6
20260504191529 28 208 3.2 16.1 0.00 0.00 0.00 51 1013.5
20260504191011 28 226 3.2 19.3 0.00 0.00 0.00 52 1013.7
20260504190510 29 200 4.8 19.3 0.00 0.00 0.00 50 1014.0
20260504190028 29 185 1.6 16.1 0.00 0.00 0.00 49 1014.0
20260504185512 28 231 4.8 16.1 0.00 0.00 0.00 51 1014.0
20260504185011 28 0 1.6 12.9 0.00 0.00 0.00 52 1014.0
20260504184541 28 0 3.2 12.9 0.00 0.00 0.00 50 1014.0
20260504184012 28 286 1.6 20.9 0.00 0.00 0.00 52 1014.1
20260504183029 27 0 1.6 12.9 0.00 0.00 0.00 52 1014.1
20260504182510 27 160 3.2 12.9 0.00 0.00 0.00 53 1014.2
20260504182013 27 176 4.8 12.9 0.00 0.00 0.00 53 1014.4
20260504181531 27 0 1.6 19.3 0.00 0.00 0.00 55 1014.2
20260504181010 27 63 4.8 19.3 0.00 0.00 0.00 56 1014.2
20260504180512 27 236 3.2 12.9 0.00 0.00 0.00 55 1014.5
20260504180028 27 110 3.2 16.1 0.00 0.00 0.00 52 1014.6
20260504175511 27 221 1.6 20.9 0.00 0.00 0.00 52 1014.6
20260504175018 27 128 3.2 20.9 0.00 0.00 0.00 53 1014.5
20260504174529 27 175 3.2 19.3 0.00 0.00 0.00 52 1014.7
20260504174011 27 0 4.8 19.3 0.00 0.00 0.00 52 1014.8
20260504173511 27 0 1.6 14.5 0.00 0.00 0.00 53 1014.9
20260504173028 27 218 1.6 11.3 0.00 0.00 0.00 53 1014.9
20260504172508 27 212 3.2 12.9 0.00 0.00 0.00 52 1014.9
20260504171529 26 205 4.8 17.7 0.00 0.00 0.00 53 1015.1
20260504171011 26 206 4.8 17.7 0.00 0.00 0.00 54 1015.3
20260504170508 26 162 4.8 16.1 0.00 0.00 0.00 54 1015.2
20260504151013 22 173 11.3 24.1 0.00 0.00 0.00 64 1016.2
20260504150514 22 0 4.8 17.7 0.00 0.00 0.00 65 1016.2
20260504141013 17 214 0.0 6.4 0.00 0.00 0.00 92 1016.2
20260504140515 16 0 0.0 6.4 0.00 0.00 0.00 93 1016.3
20260504130512 12 0 0.0 3.2 0.00 0.00 0.00 92 1016.1
20260504110513 12 0 0.0 0.0 0.00 0.00 0.00 89 1015.6
20260504100510 12 0 0.0 0.0 0.00 0.00 0.00 87 1015.9
20260504081531 13 0 0.0 0.0 0.00 0.00 0.00 83 1016.5
20260504081011 13 0 0.0 0.0 0.00 0.00 0.00 83 1016.6
20260504080512 13 0 0.0 0.0 0.00 0.00 0.00 83 1016.6
20260504050512 16 0 0.0 0.0 0.00 0.00 0.00 74 1018.5
20260504045512 16 0 0.0 0.0 0.00 0.00 0.00 72 1018.4
20260504045011 16 0 0.0 0.0 0.00 0.00 0.00 72 1018.5
20260504044533 16 0 0.0 0.0 0.00 0.00 0.00 72 1018.5
20260504044011 16 0 0.0 0.0 0.00 0.00 0.00 71 1018.6
20260504043511 16 0 0.0 0.0 0.00 0.00 0.00 71 1018.7
20260504043031 16 0 0.0 1.6 0.00 0.00 0.00 70 1018.7
20260504042513 16 0 0.0 1.6 0.00 0.00 0.00 70 1018.6
20260504042048 16 0 0.0 1.6 0.00 0.00 0.00 70 1018.7
20260504041534 16 0 0.0 1.6 0.00 0.00 0.00 70 1018.6
20260504041012 17 0 0.0 0.0 0.00 0.00 0.00 69 1018.7
20260504040512 17 0 0.0 0.0 0.00 0.00 0.00 69 1018.6
20260504040030 17 0 0.0 0.0 0.00 0.00 0.00 69 1018.7
20260504035512 17 0 0.0 0.0 0.00 0.00 0.00 69 1018.7
20260504035012 17 0 0.0 0.0 0.00 0.00 0.00 68 1018.7
20260504034532 17 0 0.0 0.0 0.00 0.00 0.00 68 1018.6
20260504034012 17 0 0.0 1.6 0.00 0.00 0.00 69 1018.6
20260504033512 17 0 0.0 1.6 0.00 0.00 0.00 68 1018.6
20260504033030 17 0 0.0 3.2 0.00 0.00 0.00 67 1018.5
20260504032512 17 0 0.0 3.2 0.00 0.00 0.00 67 1018.6
20260504032010 17 154 0.0 4.8 0.00 0.00 0.00 67 1018.6
20260504031530 17 0 0.0 4.8 0.00 0.00 0.00 67 1018.6
20260504031009 17 0 0.0 6.4 0.00 0.00 0.00 66 1018.5
20260504030512 17 0 0.0 6.4 0.00 0.00 0.00 65 1018.5
20260504030029 17 0 0.0 3.2 0.00 0.00 0.00 67 1018.5
20260504025510 17 0 0.0 6.4 0.00 0.00 0.00 67 1018.4
20260504025012 18 133 0.0 6.4 0.00 0.00 0.00 65 1018.4
20260504024531 18 168 0.0 4.8 0.00 0.00 0.00 64 1018.3
20260504024012 18 206 0.0 4.8 0.00 0.00 0.00 63 1018.2
20260504023510 18 0 0.0 0.0 0.00 0.00 0.00 63 1018.1
20260504023031 18 0 0.0 0.0 0.00 0.00 0.00 63 1018.2
20260504022514 18 0 0.0 0.0 0.00 0.00 0.00 62 1018.2
20260504022009 18 0 0.0 4.8 0.00 0.00 0.00 62 1018.2
20260504021530 19 0 0.0 4.8 0.00 0.00 0.00 61 1018.2
20260504021012 19 169 0.0 3.2 0.00 0.00 0.00 61 1018.0
20260504020510 19 0 0.0 0.0 0.00 0.00 0.00 59 1018.0
20260504020031 20 0 0.0 0.0 0.00 0.00 0.00 58 1018.0
20260504015511 20 0 0.0 0.0 0.00 0.00 0.00 57 1017.8
20260504015015 20 0 0.0 0.0 0.00 0.00 0.00 55 1017.8